This is the latest recevied weather packets stored in our database for station/object KG5WBN. If no packets are shown the sender has not sent any weather packets the latest 10 day(s).
| Time | Temp. | Humidity | Pressure | Rain* | Wind** | Luminosity | Snow |
|---|---|---|---|---|---|---|---|
| 1778088081 | 28.89° C | 58% | 1013.5 hPa | 0 mm | - | 210 W/m² | - |
| 1778087779 | 28.89° C | 61% | 1013.5 hPa | 0 mm | - | 213 W/m² | - |
| 1778087476 | 28.33° C | 65% | 1013.2 hPa | 0 mm | - | 192 W/m² | - |
| 1778087168 | 27.78° C | 64% | 1013.5 hPa | 0 mm | - | 162 W/m² | - |
| 1778086865 | 27.78° C | 64% | 1013.5 hPa | 0 mm | - | 80 W/m² | - |
| 1778086564 | 28.33° C | 63% | 1013.5 hPa | 0 mm | - | 115 W/m² | - |
| 1778086260 | 28.33° C | 63% | 1013.5 hPa | 0 mm | - | 136 W/m² | - |
| 1778085957 | 28.33° C | 62% | 1013.5 hPa | 0 mm | - | 103 W/m² | - |
| 1778085654 | 28.33° C | 59% | 1013.2 hPa | 0 mm | - | 107 W/m² | - |
| 1778085350 | 28.89° C | 59% | 1013.5 hPa | 0 mm | - | 133 W/m² | - |
| 1778085046 | 28.89° C | 58% | 1013.2 hPa | 0 mm | - | 150 W/m² | - |
| 1778084742 | 28.89° C | 57% | 1013.2 hPa | 0 mm | - | 175 W/m² | - |
| 1778084440 | 28.89° C | 60% | 1012.9 hPa | 0 mm | - | 257 W/m² | - |
| 1778084137 | 28.33° C | 61% | 1012.9 hPa | 0 mm | - | 141 W/m² | - |
| 1778083833 | 28.33° C | 62% | 1012.9 hPa | 0 mm | - | 156 W/m² | - |
| 1778083526 | 27.78° C | 62% | 1012.9 hPa | 0 mm | - | 106 W/m² | - |
| 1778083223 | 27.78° C | 62% | 1012.9 hPa | 0 mm | - | 135 W/m² | - |
| 1778082921 | 28.33° C | 63% | 1012.9 hPa | 0 mm | - | 134 W/m² | - |
| 1778081818 | 27.78° C | 63% | 1012.9 hPa | 0 mm | - | 133 W/m² | - |
| 1778081515 | 27.78° C | 63% | 1012.9 hPa | 0 mm | - | 135 W/m² | - |
| 1778081212 | 27.78° C | 64% | 1012.9 hPa | 0 mm | - | 147 W/m² | - |
| 1778080910 | 27.78° C | 64% | 1012.5 hPa | 0 mm | - | 122 W/m² | - |
| 1778080609 | 27.78° C | 65% | 1012.5 hPa | 0 mm | - | 122 W/m² | - |
| 1778080304 | 27.78° C | 64% | 1012.9 hPa | 0 mm | - | 126 W/m² | - |
| 1778080001 | 27.78° C | 64% | 1012.9 hPa | 0 mm | - | 152 W/m² | - |
* Rain latest hour (hover to see other rain measurements)
** Current wind speed in m/s (hover to see current wind gust speed)